Terug naar catalogus

H-2A R/B

ActiefPO
NORAD 38341·ROCKET BODY·🇯🇵 Japan

Gelanceerd May 17, 2012 vanaf Tanegashima Space Center

Loading…

Volgende Passages (komende 24 uur)

TLE

VersSource: Space-Track

Epoch: Sep 14, 2026, 09:20 UTC

1 38341U 12025E   26257.38896162  .00001846  00000-0  16731-3 0  9994
2 38341  98.4938 239.9580 0045010  55.9391 304.6088 14.96049319776421

Volg H-2A R/B in realtime met AllMySat

Download on the App Store